Regional Weather Roundup
Issued by NWS

Home | Current Version | Previous Version | Graphics & Text | Print | Product List | Glossary On
Versions: 1 2 3 4 5 6 7 8 9 10 11 12 13 14 15 16 17 18 19 20 21 22 23 24 25 26 27 28 29 30 31 32 33 34 35 36 37 38 39 40 41 42 43 44 45 46 47 48 49 50
000
ASUS45 KABQ 250701
RWRNM
NEW MEXICO REGIONAL WEATHER ROUNDUP
NATIONAL WEATHER SERVICE ALBUQUERQUE NM
100 AM MDT SUN JUN 25 2017

NOTE: "FAIR" MEANS FEW OR NO CLOUDS BELOW 12,000 FEET AGL WITH NO
       SIGNIFICANT WEATHER OR OBSTRUCTIONS TO VISION.

      THIS PRODUCT IS RELEASED AS TWO VERSIONS.  ONE VERSION NEAR
      THE TOP OF THE HOUR CONTAINING PRELIMINARY DATA FROM ALBUQUERQUE
      AND OTHER STATIONS.  A FINAL VERSION WITH ADDITIONAL DATA IS
      ISSUED ABOUT 10 MINUTES AFTER THE HOUR.

NMZ501-503-504-510>518-250800-
NORTHWEST PLATEAU/NORTHCENTRAL MOUNTAINS

CITY           SKY/WX    TMP DP  RH WIND       PRES   REMARKS
FARMINGTON     FAIR      64  13  13 N10       30.14S
LOS ALAMOS     FAIR      62  52  68 SW12G17   30.40F
SANTA FE       FAIR      66  56  70 SE15      30.33F
TAOS           FAIR      63  46  55 SE15      30.39S
ANGEL FIRE     CLOUDY    56  50  81 S7        30.50S

$$
NMZ402-403-502-505>509-250800-
WESTCENTRAL MOUNTAINS/SOUTHWEST MOUNTAINS

CITY           SKY/WX    TMP DP  RH WIND       PRES   REMARKS
GALLUP         FAIR      69  42  37 E8        30.25S
GRANTS         FAIR      60  44  54 S7        30.30F
SILVER CITY    FAIR      63  58  84 NE6       30.28F

$$
NMZ407-409-411-412-250800-
SOUTHERN DESERTS

CITY           SKY/WX    TMP DP  RH WIND       PRES   REMARKS
DEMING         FAIR      72  56  57 S10G23    30.19R
LAS CRUCES     FAIR      74  55  51 S8        30.23R
HOLLOMAN AFB   FAIR      75  58  56 S8        30.20R
ALAMOGORDO     FAIR      70  57  64 SW3       30.20R
T OR C         FAIR      67  58  72 S6        30.22R

$$
NMZ519>523-250800-
CENTRAL VALLEYS/CENTRAL HIGHLANDS

CITY           SKY/WX    TMP DP  RH WIND       PRES   REMARKS
ALBUQUERQUE    FAIR      72  53  51 E21       30.25S
DOUBLE EAGLE   FAIR      62  47  58 NE5       30.29S
MORIARTY ARPT  FAIR      65  56  71 E12G20    30.35S
CLINES CORNERS FAIR      58  52  80 E12       30.42R
BELEN          NOT AVBL
SOCORRO        FAIR      67  52  58 S12       30.22R

$$
NMZ524>526-539-540-250800-
SOUTHCENTRAL MOUNTAINS

CITY           SKY/WX    TMP DP  RH WIND       PRES   REMARKS
RUIDOSO        FAIR      61  50  67 SE9       30.43R

$$
NMZ527>531-250800-
NORTHEAST HIGHLANDS/NORTHEAST PLAINS

CITY           SKY/WX    TMP DP  RH WIND       PRES   REMARKS
LAS VEGAS      CLOUDY    60  53  77 SE9       30.43S
RATON          LGT RAIN  61  56  83 CALM      30.39S
CLAYTON        CLOUDY    60  56  86 SE6       30.35S

$$
NMZ532>537-250800-
EASTCENTRAL PLAINS

CITY           SKY/WX    TMP DP  RH WIND       PRES   REMARKS
SANTA ROSA     CLOUDY    68  57  67 E12       30.30R
TUCUMCARI      CLOUDY    65  62  90 E13       30.25S
CANNON AFB     CLOUDY    64  64 100 E18       30.32S
CLOVIS AIRPORT CLOUDY    64  60  87 E16       30.33R

$$
NMZ028-029-538-250800-
SOUTHEAST PLAINS

CITY           SKY/WX    TMP DP  RH WIND       PRES   REMARKS
ROSWELL        FAIR      75  58  55 SE8       30.21R
ARTESIA        FAIR      77  61  57 SE13      30.21R
CARLSBAD       FAIR      79  62  56 SE14      30.17S
HOBBS          MOCLDY    70  64  83 E21       30.28R


$$




USA.gov is the U.S. government's official web portal to all federal, state and local government web resources and services.